Time,TemperatureF,DewpointF,PressureIn,WindDirection,WindDirectionDegrees,WindSpeedMPH,WindSpeedGustMPH,Humidity,HourlyPrecipIn,Conditions,Clouds,dailyrainin,SolarRadiationWatts/m^2,SoftwareType,DateUTC
2013-02-28 00:22:00,29.0,23.0,-100.00,NNE,27,6.0,16.0,77,0.00,,,0.00,1.000000,,2013-02-28 05:22:00,
2013-02-28 00:32:00,29.0,23.0,-100.00,NNE,27,6.0,16.0,77,0.00,,,0.00,1.000000,,2013-02-28 05:32:00,
2013-02-28 00:42:00,29.0,23.0,-100.00,NNE,27,6.0,16.0,77,0.00,,,0.00,1.000000,,2013-02-28 05:42:00,
2013-02-28 00:52:00,29.0,23.0,-100.00,NNE,27,6.0,16.0,77,0.00,,,0.00,1.000000,,2013-02-28 05:52:00,
2013-02-28 01:22:00,28.0,22.0,-100.00,NNE,14,8.0,18.0,79,0.00,,,0.00,1.000000,,2013-02-28 06:22:00,
2013-02-28 01:32:00,28.0,22.0,-100.00,NNE,14,8.0,18.0,79,0.00,,,0.00,1.000000,,2013-02-28 06:32:00,
2013-02-28 01:42:00,28.0,22.0,-100.00,NNE,14,8.0,18.0,79,0.00,,,0.00,1.000000,,2013-02-28 06:42:00,
2013-02-28 01:51:00,28.0,22.0,-100.00,NNE,14,8.0,18.0,79,0.00,,,0.00,1.000000,,2013-02-28 06:51:00,
2013-02-28 02:21:00,28.0,23.0,-100.00,NNE,33,7.0,16.0,80,0.00,,,0.00,1.000000,,2013-02-28 07:21:00,
2013-02-28 02:32:00,28.0,23.0,-100.00,NNE,33,7.0,16.0,80,0.00,,,0.00,1.000000,,2013-02-28 07:32:00,
2013-02-28 02:41:00,28.0,23.0,-100.00,NNE,33,7.0,16.0,80,0.00,,,0.00,1.000000,,2013-02-28 07:41:00,
2013-02-28 02:51:00,28.0,23.0,-100.00,NNE,33,7.0,16.0,80,0.00,,,0.00,1.000000,,2013-02-28 07:51:00,
2013-02-28 03:22:00,27.0,22.0,-100.00,NNE,17,7.0,17.0,82,0.00,,,0.00,1.000000,,2013-02-28 08:22:00,
2013-02-28 03:32:00,27.0,22.0,-100.00,NNE,17,7.0,17.0,82,0.00,,,0.00,1.000000,,2013-02-28 08:32:00,
2013-02-28 03:42:00,27.0,22.0,-100.00,NNE,17,7.0,17.0,82,0.00,,,0.00,1.000000,,2013-02-28 08:42:00,
2013-02-28 03:52:00,27.0,22.0,-100.00,NNE,17,7.0,17.0,82,0.00,,,0.00,1.000000,,2013-02-28 08:52:00,
2013-02-28 04:22:00,26.0,21.0,-100.00,NNE,25,8.0,19.0,82,0.00,,,0.00,1.000000,,2013-02-28 09:22:00,
2013-02-28 04:32:00,26.0,21.0,-100.00,NNE,25,8.0,19.0,82,0.00,,,0.00,1.000000,,2013-02-28 09:32:00,
2013-02-28 04:42:00,26.0,21.0,-100.00,NNE,25,8.0,19.0,82,0.00,,,0.00,1.000000,,2013-02-28 09:42:00,
2013-02-28 04:52:00,26.0,21.0,-100.00,NNE,25,8.0,19.0,82,0.00,,,0.00,1.000000,,2013-02-28 09:52:00,
2013-02-28 05:22:00,26.0,21.0,-100.00,NNE,18,7.0,14.0,81,0.00,,,0.00,1.000000,,2013-02-28 10:22:00,
2013-02-28 05:32:00,26.0,21.0,-100.00,NNE,18,7.0,14.0,81,0.00,,,0.00,1.000000,,2013-02-28 10:32:00,
2013-02-28 05:42:00,26.0,21.0,-100.00,NNE,18,7.0,14.0,81,0.00,,,0.00,1.000000,,2013-02-28 10:42:00,
2013-02-28 05:52:00,26.0,21.0,-100.00,NNE,18,7.0,14.0,81,0.00,,,0.00,1.000000,,2013-02-28 10:52:00,
2013-02-28 06:22:00,25.0,21.0,-100.00,NNE,27,7.0,20.0,84,0.00,,,0.00,1.000000,,2013-02-28 11:22:00,
2013-02-28 06:32:00,25.0,21.0,-100.00,NNE,27,7.0,20.0,84,0.00,,,0.00,1.000000,,2013-02-28 11:32:00,
2013-02-28 06:42:00,25.0,21.0,-100.00,NNE,27,7.0,20.0,84,0.00,,,0.00,1.000000,,2013-02-28 11:42:00,
2013-02-28 06:52:00,25.0,21.0,-100.00,NNE,27,7.0,20.0,84,0.00,,,0.00,1.000000,,2013-02-28 11:52:00,
2013-02-28 07:22:00,24.0,20.0,-100.00,North,11,6.0,16.0,84,0.00,,,0.00,1.000000,,2013-02-28 12:22:00,
2013-02-28 07:32:00,24.0,20.0,-100.00,North,11,6.0,16.0,84,0.00,,,0.00,1.000000,,2013-02-28 12:32:00,
2013-02-28 07:42:00,24.0,20.0,-100.00,North,11,6.0,16.0,84,0.00,,,0.00,1.000000,,2013-02-28 12:42:00,
2013-02-28 07:52:00,24.0,20.0,-100.00,North,11,6.0,16.0,84,0.00,,,0.00,1.000000,,2013-02-28 12:52:00,
2013-02-28 08:22:00,24.0,20.0,-100.00,NE,35,6.0,15.0,83,0.00,,,0.00,1.000000,,2013-02-28 13:22:00,
2013-02-28 08:32:00,24.0,20.0,-100.00,NE,35,6.0,15.0,83,0.00,,,0.00,1.000000,,2013-02-28 13:32:00,
2013-02-28 08:42:00,24.0,20.0,-100.00,NE,35,6.0,15.0,83,0.00,,,0.00,1.000000,,2013-02-28 13:42:00,
2013-02-28 08:52:00,24.0,20.0,-100.00,NE,35,6.0,15.0,83,0.00,,,0.00,1.000000,,2013-02-28 13:52:00,
2013-02-28 09:22:00,24.0,18.0,-100.00,NE,36,7.0,17.0,78,0.00,,,0.00,12.000000,,2013-02-28 14:22:00,
2013-02-28 09:32:00,24.0,18.0,-100.00,NE,36,7.0,17.0,78,0.00,,,0.00,12.000000,,2013-02-28 14:32:00,
2013-02-28 09:42:00,24.0,18.0,-100.00,NE,36,7.0,17.0,78,0.00,,,0.00,12.000000,,2013-02-28 14:42:00,
2013-02-28 09:52:00,24.0,18.0,-100.00,NE,36,7.0,17.0,78,0.00,,,0.00,12.000000,,2013-02-28 14:52:00,
2013-02-28 10:21:00,24.0,17.0,-100.00,NNE,30,8.0,15.0,73,0.00,,,0.00,42.000000,,2013-02-28 15:21:00,
2013-02-28 10:32:00,24.0,17.0,-100.00,NNE,30,8.0,15.0,73,0.00,,,0.00,42.000000,,2013-02-28 15:32:00,
2013-02-28 10:42:00,24.0,17.0,-100.00,NNE,30,8.0,15.0,73,0.00,,,0.00,42.000000,,2013-02-28 15:42:00,
2013-02-28 10:52:00,24.0,17.0,-100.00,NNE,30,8.0,15.0,73,0.00,,,0.00,42.000000,,2013-02-28 15:52:00,
2013-02-28 11:22:00,23.0,16.0,-100.00,NNE,31,7.0,17.0,74,0.00,,,0.00,66.000000,,2013-02-28 16:22:00,
2013-02-28 11:32:00,23.0,16.0,-100.00,NNE,31,7.0,17.0,74,0.00,,,0.00,66.000000,,2013-02-28 16:32:00,
2013-02-28 11:42:00,23.0,16.0,-100.00,NNE,31,7.0,17.0,74,0.00,,,0.00,66.000000,,2013-02-28 16:42:00,
2013-02-28 11:52:00,23.0,16.0,-100.00,NNE,31,7.0,17.0,74,0.00,,,0.00,66.000000,,2013-02-28 16:52:00,
2013-02-28 12:22:00,24.0,15.0,-100.00,NNE,33,7.0,17.0,67,0.00,,,-99.99,144.000000,,2013-02-28 17:22:00,
2013-02-28 12:32:00,24.0,15.0,-100.00,NNE,33,7.0,17.0,67,0.00,,,-99.99,144.000000,,2013-02-28 17:32:00,
2013-02-28 12:42:00,24.0,15.0,-100.00,NNE,33,7.0,17.0,67,0.00,,,-99.99,144.000000,,2013-02-28 17:42:00,
2013-02-28 12:52:00,24.0,15.0,-100.00,NNE,33,7.0,17.0,67,0.00,,,-99.99,144.000000,,2013-02-28 17:52:00,
2013-02-28 13:22:00,26.0,17.0,-100.00,NE,39,6.0,15.0,69,0.00,,,0.00,180.000000,,2013-02-28 18:22:00,
2013-02-28 13:32:00,26.0,17.0,-100.00,NE,39,6.0,15.0,69,0.00,,,0.00,180.000000,,2013-02-28 18:32:00,
2013-02-28 13:42:00,26.0,17.0,-100.00,NE,39,6.0,15.0,69,0.00,,,0.00,180.000000,,2013-02-28 18:42:00,
2013-02-28 13:52:00,26.0,17.0,-100.00,NE,39,6.0,15.0,69,0.00,,,0.00,180.000000,,2013-02-28 18:52:00,
2013-02-28 14:22:00,26.0,16.0,-100.00,NE,39,6.0,16.0,64,0.00,,,0.00,232.000000,,2013-02-28 19:22:00,
2013-02-28 14:32:00,26.0,16.0,-100.00,NE,39,6.0,16.0,64,0.00,,,0.00,232.000000,,2013-02-28 19:32:00,
2013-02-28 14:42:00,26.0,16.0,-100.00,NE,39,6.0,16.0,64,0.00,,,0.00,232.000000,,2013-02-28 19:42:00,
2013-02-28 14:51:00,26.0,16.0,-100.00,NE,39,6.0,16.0,64,0.00,,,0.00,232.000000,,2013-02-28 19:51:00,
2013-02-28 15:22:00,24.0,14.0,-100.00,NE,42,6.0,17.0,66,0.00,,,0.00,208.000000,,2013-02-28 20:22:00,
2013-02-28 15:32:00,24.0,14.0,-100.00,NE,42,6.0,17.0,66,0.00,,,0.00,208.000000,,2013-02-28 20:32:00,
2013-02-28 15:42:00,24.0,14.0,-100.00,NE,42,6.0,17.0,66,0.00,,,0.00,208.000000,,2013-02-28 20:42:00,
2013-02-28 15:52:00,24.0,14.0,-100.00,NE,42,6.0,17.0,66,0.00,,,0.00,208.000000,,2013-02-28 20:52:00,
2013-02-28 16:22:00,24.0,15.0,-100.00,NNE,30,6.0,15.0,69,0.00,,,0.00,167.000000,,2013-02-28 21:22:00,
2013-02-28 16:32:00,24.0,15.0,-100.00,NNE,30,6.0,15.0,69,0.00,,,0.00,167.000000,,2013-02-28 21:32:00,
2013-02-28 16:42:00,24.0,15.0,-100.00,NNE,30,6.0,15.0,69,0.00,,,0.00,167.000000,,2013-02-28 21:42:00,
2013-02-28 16:52:00,24.0,15.0,-100.00,NNE,30,6.0,15.0,69,0.00,,,0.00,167.000000,,2013-02-28 21:52:00,
2013-02-28 17:22:00,22.0,14.0,-100.00,NNE,29,6.0,18.0,70,0.00,,,0.00,107.000000,,2013-02-28 22:22:00,
2013-02-28 17:32:00,22.0,14.0,-100.00,NNE,29,6.0,18.0,70,0.00,,,0.00,107.000000,,2013-02-28 22:32:00,
2013-02-28 17:42:00,22.0,14.0,-100.00,NNE,29,6.0,18.0,70,0.00,,,0.00,107.000000,,2013-02-28 22:42:00,
2013-02-28 17:52:00,22.0,14.0,-100.00,NNE,29,6.0,18.0,70,0.00,,,0.00,107.000000,,2013-02-28 22:52:00,
2013-02-28 18:22:00,20.0,12.0,-100.00,NNE,28,7.0,14.0,71,0.00,,,0.00,49.000000,,2013-02-28 23:22:00,
2013-02-28 18:32:00,20.0,12.0,-100.00,NNE,28,7.0,14.0,71,0.00,,,0.00,49.000000,,2013-02-28 23:32:00,
2013-02-28 18:42:00,20.0,12.0,-100.00,NNE,28,7.0,14.0,71,0.00,,,0.00,49.000000,,2013-02-28 23:42:00,
2013-02-28 18:52:00,20.0,12.0,-100.00,NNE,28,7.0,14.0,71,0.00,,,0.00,49.000000,,2013-02-28 23:52:00,
2013-02-28 19:22:00,19.0,12.0,-100.00,NE,37,6.0,14.0,75,0.00,,,0.00,8.000000,,2013-03-01 00:22:00,
2013-02-28 19:32:00,19.0,12.0,-100.00,NE,37,6.0,14.0,75,0.00,,,0.00,8.000000,,2013-03-01 00:32:00,
2013-02-28 19:42:00,19.0,12.0,-100.00,NE,37,6.0,14.0,75,0.00,,,0.00,8.000000,,2013-03-01 00:42:00,
2013-02-28 19:51:00,19.0,12.0,-100.00,NE,37,6.0,14.0,75,0.00,,,0.00,8.000000,,2013-03-01 00:51:00,
2013-02-28 20:21:00,19.0,12.0,-100.00,NE,37,6.0,17.0,74,0.00,,,0.00,1.000000,,2013-03-01 01:21:00,
2013-02-28 20:32:00,19.0,12.0,-100.00,NE,37,6.0,17.0,74,0.00,,,0.00,1.000000,,2013-03-01 01:32:00,
2013-02-28 20:42:00,19.0,12.0,-100.00,NE,37,6.0,17.0,74,0.00,,,0.00,1.000000,,2013-03-01 01:42:00,
2013-02-28 20:51:00,19.0,12.0,-100.00,NE,37,6.0,17.0,74,0.00,,,0.00,1.000000,,2013-03-01 01:51:00,
2013-02-28 21:21:00,18.0,11.0,-100.00,NNE,24,5.0,12.0,75,0.00,,,0.00,1.000000,,2013-03-01 02:21:00,
2013-02-28 21:32:00,18.0,11.0,-100.00,NNE,24,5.0,12.0,75,0.00,,,0.00,1.000000,,2013-03-01 02:32:00,
2013-02-28 21:42:00,18.0,11.0,-100.00,NNE,24,5.0,12.0,75,0.00,,,0.00,1.000000,,2013-03-01 02:42:00,
2013-02-28 21:52:00,18.0,11.0,-100.00,NNE,24,5.0,12.0,75,0.00,,,0.00,1.000000,,2013-03-01 02:52:00,
2013-02-28 22:11:00,18.0,11.0,-100.00,NNE,23,5.0,16.0,72,0.00,,,0.00,1.000000,,2013-03-01 03:11:00,
2013-02-28 22:21:00,18.0,11.0,-100.00,NNE,23,5.0,16.0,72,0.00,,,0.00,1.000000,,2013-03-01 03:21:00,
2013-02-28 22:32:00,18.0,11.0,-100.00,NNE,23,5.0,16.0,72,0.00,,,0.00,1.000000,,2013-03-01 03:32:00,
2013-02-28 22:42:00,18.0,11.0,-100.00,NNE,23,5.0,16.0,72,0.00,,,0.00,1.000000,,2013-03-01 03:42:00,
2013-02-28 22:51:00,18.0,11.0,-100.00,NNE,23,5.0,16.0,72,0.00,,,0.00,1.000000,,2013-03-01 03:51:00,
2013-02-28 23:32:00,18.0,9.0,-100.00,NNE,26,5.0,12.0,68,0.00,,,0.00,1.000000,,2013-03-01 04:32:00,
2013-02-28 23:42:00,18.0,9.0,-100.00,NNE,26,5.0,12.0,68,0.00,,,0.00,1.000000,,2013-03-01 04:42:00,
2013-02-28 23:52:00,18.0,9.0,-100.00,NNE,26,5.0,12.0,68,0.00,,,0.00,1.000000,,2013-03-01 04:52:00,